Everett, WA

3:24 AM PST on December 11, 2019 (GMT -0800)
Snohomish County

Weather History for KPAE - October, 2019

Change the Weather History Date:

Sunday, October 20, 2019

  Actual Average Record
Temperature  
Mean Temperature 48 °F -  
Max Temperature 51 °F 57 °F 68 °F (1952)
Min Temperature 45 °F 41 °F 25 °F (1949)
Degree Days  
Heating Degree Days 17    
Moisture  
Dew Point 45 °F    
Average Humidity 90    
Maximum Humidity 97    
Minimum Humidity 80    
Precipitation  
Precipitation 0.07 in - - ()
Sea Level Pressure  
Sea Level Pressure 30.00 in    
Wind  
Wind Speed 8 mph (SSE)    
Max Wind Speed 17 mph    
Max Gust Speed 25 mph    
Visibility 8 miles    
Events Fog , Rain    
Averages and records for this station are not official NWS values.
T = Trace of Precipitation, MM = Missing Value Source: NWS Daily Summary

Daily Weather History Graph

Daily Weather History Graph

Search for Another Location

Airport or City:

Astronomy

Oct. 20, 2019 Rise Set
Actual Time 7:35 AM PDT 6:11 PM PDT
Civil Twilight 7:03 AM PDT 6:42 PM PDT
Nautical Twilight 6:27 AM PDT 7:18 PM PDT
Astronomical Twilight 5:52 AM PDT 7:54 PM PDT
Moon 11:08 PM PDT (10/20) 2:26 PM PDT (10/20)
Length of Visible Light 11h 39m
Length of Day
10h 35m
Waning Gibbous, 58% of the Moon is Illuminated
Oct 20
Waning Gibbous
Oct 21
Last Quarter
Oct 27
New
Nov 4
First Quarter
Nov 12
Full

Hourly Weather History & Observations

Time (PDT) Temp. Windchill Dew Point Humidity Pressure Visibility Wind Dir Wind Speed Gust Speed Precip Events Conditions
12:53 AM 45.0 °F 40.1 °F 43.0 °F 93% 30.06 in 10.0 mi SSE 9.2 mph - N/A Fog Patches of Fog
1:53 AM 45.0 °F 40.6 °F 43.0 °F 93% 30.07 in 10.0 mi SSE 8.1 mph - N/A Fog Patches of Fog
2:39 AM 45.0 °F 40.6 °F 43.0 °F 93% 30.06 in 10.0 mi SSE 8.1 mph - N/A Fog Patches of Fog
2:53 AM 45.0 °F 40.6 °F 43.0 °F 93% 30.06 in 10.0 mi SSE 8.1 mph - N/A Fog Patches of Fog
3:53 AM 45.0 °F 43.5 °F 43.0 °F 93% 30.06 in 10.0 mi Variable 3.5 mph - N/A Fog Patches of Fog
4:53 AM 46.0 °F - 44.1 °F 93% 30.06 in 10.0 mi Calm Calm - N/A Fog Patches of Fog
5:01 AM 46.0 °F 43.9 °F 44.1 °F 93% 30.06 in 10.0 mi Variable 4.6 mph - N/A Fog Patches of Fog
5:41 AM 46.0 °F 41.4 °F 43.0 °F 89% 30.05 in 10.0 mi SSE 9.2 mph - N/A Fog Patches of Fog
5:48 AM 46.4 °F 41.9 °F 42.8 °F 87% 30.05 in 10.0 mi SSE 9.2 mph - N/A Fog Patches of Fog
5:53 AM 46.0 °F 41.4 °F 43.0 °F 89% 30.06 in 10.0 mi SSE 9.2 mph - N/A Fog Patches of Fog
6:26 AM 46.0 °F 41.0 °F 43.0 °F 89% 30.04 in 10.0 mi SSE 10.4 mph - N/A Fog Patches of Fog
6:53 AM 46.0 °F 41.4 °F 43.0 °F 89% 30.04 in 10.0 mi SSE 9.2 mph - N/A   Overcast
7:53 AM 46.0 °F 43.1 °F 43.0 °F 89% 30.04 in 10.0 mi Variable 5.8 mph - N/A   Overcast
8:53 AM 46.9 °F - 43.0 °F 86% 30.03 in 10.0 mi Variable 5.8 mph - 0.00 in Rain Light Rain
9:02 AM 46.9 °F - 43.0 °F 86% 30.02 in 8.0 mi SE 6.9 mph - 0.00 in Rain Light Rain
9:53 AM 46.9 °F - 43.0 °F 86% 30.01 in 10.0 mi Variable 5.8 mph - 0.01 in Rain Light Rain
10:53 AM 46.9 °F - 43.0 °F 86% 30.00 in 10.0 mi SSE 12.7 mph - 0.01 in Rain Light Rain
10:56 AM 46.9 °F - 43.0 °F 86% 29.99 in 10.0 mi SE 9.2 mph - 0.00 in   Overcast
11:53 AM 48.0 °F - 43.0 °F 83% 29.98 in 10.0 mi SE 10.4 mph - 0.00 in   Overcast
12:43 PM 48.9 °F - 43.0 °F 80% 29.95 in 6.0 mi SSE 12.7 mph 16.1 mph 0.00 in Rain Light Rain
12:50 PM 48.2 °F - 44.6 °F 87% 29.95 in 5.0 mi SSE 12.7 mph 17.3 mph 0.00 in   Overcast
12:53 PM 48.0 °F - 44.1 °F 86% 29.95 in 4.0 mi SSE 11.5 mph 17.3 mph 0.00 in   Overcast
12:59 PM 48.0 °F - 44.1 °F 86% 29.94 in 1.5 mi SE 10.4 mph - 0.00 in Rain Light Rain
1:53 PM 48.0 °F - 46.0 °F 93% 29.91 in 5.0 mi SE 9.2 mph 19.6 mph 0.00 in   Overcast
2:53 PM 48.9 °F - 46.0 °F 90% 29.89 in 3.0 mi SSE 17.3 mph 25.3 mph 0.00 in Rain Light Rain
3:53 PM 48.9 °F - 46.0 °F 90% 29.90 in 8.0 mi SE 11.5 mph 21.9 mph 0.00 in   Overcast
4:53 PM 48.9 °F - 46.9 °F 93% 29.93 in 8.0 mi SSE 9.2 mph - N/A   Overcast
5:24 PM 48.9 °F - 48.0 °F 97% 29.94 in 1.8 mi South 4.6 mph - 0.02 in Rain Rain
5:53 PM 48.9 °F - 48.0 °F 97% 29.95 in 1.5 mi South 4.6 mph - 0.05 in Rain Light Rain
5:56 PM 48.9 °F - 48.0 °F 97% 29.94 in 2.5 mi South 5.8 mph - 0.00 in Rain Light Rain
6:03 PM 48.9 °F - 48.0 °F 97% 29.94 in 10.0 mi South 5.8 mph - 0.00 in Rain Light Rain
6:10 PM 50.0 °F - 48.0 °F 93% 29.95 in 10.0 mi SE 3.5 mph - 0.00 in   Overcast
6:53 PM 51.1 °F - 46.0 °F 83% 29.96 in 10.0 mi NNW 4.6 mph - 0.00 in   Overcast
7:53 PM 50.0 °F - 44.1 °F 80% 29.99 in 10.0 mi Calm Calm - N/A   Partly Cloudy
8:53 PM 48.9 °F - 46.0 °F 90% 30.02 in 10.0 mi Calm Calm - N/A   Mostly Cloudy
9:53 PM 48.9 °F - 46.0 °F 90% 30.06 in 10.0 mi SE 6.9 mph - N/A   Overcast
10:53 PM 48.0 °F - 46.0 °F 93% 30.08 in 10.0 mi SSE 5.8 mph - N/A   Overcast
11:50 PM 48.2 °F - 46.4 °F 93% 30.09 in 10.0 mi SE 9.2 mph - N/A   Overcast
11:53 PM 48.9 °F - 46.9 °F 93% 30.10 in 10.0 mi SSE 10.4 mph - N/A   Overcast